DW3361 Weather Reports


time (UTC)temp
F
wind
direction
speed
knots
gust
knots
rain 1hr
in
rain 24hr
in
rain mn
in
humidity
%
barometer
mb
20260506154537 70 13 3.5 10.4 0.00 0.00 0.00 45 1006.9
20260506153038 69 47 3.5 11.3 0.00 0.00 0.00 46 1007.0
20260506151538 69 295 2.6 12.2 0.00 0.00 0.00 45 1007.0
20260506150036 70 360 2.6 12.2 0.00 0.00 0.00 43 1007.0
20260506144534 72 27 1.7 15.6 0.00 0.00 0.00 42 1007.1
20260506143033 72 38 5.2 14.8 0.00 0.00 0.00 42 1007.1
20260506141532 72 338 4.3 13.0 0.00 0.00 0.00 42 1007.0
20260506140032 71 81 4.3 13.9 0.00 0.00 0.00 42 1007.0
20260506134605 70 22 5.2 13.9 0.00 0.00 0.00 43 1007.3
20260506133031 72 346 4.3 12.2 0.00 0.00 0.00 39 1007.3
20260506131532 74 40 4.3 17.4 0.00 0.00 0.00 38 1007.1
20260506130028 74 329 3.5 11.3 0.00 0.00 0.00 39 1007.3
20260506124528 73 299 4.3 13.0 0.00 0.00 0.00 40 1007.4
20260506123026 73 355 4.3 9.6 0.00 0.00 0.00 38 1007.3
20260506121525 73 46 5.2 14.8 0.00 0.00 0.00 39 1007.6
20260506120025 73 17 7.0 13.0 0.00 0.00 0.00 38 1007.5
20260506114532 72 10 4.3 10.4 0.00 0.00 0.00 39 1007.4
20260506113026 74 335 3.5 9.6 0.00 0.00 0.00 38 1007.6
20260506111521 73 88 5.2 8.7 0.00 0.00 0.00 42 1007.7
20260506110019 71 355 4.3 11.3 0.00 0.00 0.00 42 1007.9
20260506104518 69 59 4.3 11.3 0.00 0.00 0.00 45 1007.9
20260506103025 68 9 3.5 11.3 0.00 0.00 0.00 45 1008.2
20260506101519 68 333 3.5 13.0 0.00 0.00 0.00 45 1008.3
20260506100028 68 21 2.6 13.9 0.00 0.00 0.00 45 1008.2
20260506094517 68 26 2.6 11.3 0.00 0.00 0.00 45 1008.3
20260506093015 69 5 2.6 7.8 0.00 0.00 0.00 43 1008.3
20260506091512 71 66 2.6 9.6 0.00 0.00 0.00 41 1008.3
20260506090012 72 5 5.2 11.3 0.00 0.00 0.00 37 1008.1
20260506084510 71 347 2.6 9.6 0.00 0.00 0.00 40 1008.0
20260506083010 72 343 3.5 11.3 0.00 0.00 0.00 38 1008.0
20260506081506 72 45 0.9 9.6 0.00 0.00 0.00 39 1008.0
20260506073100 69 19 4.3 12.2 0.00 0.00 0.00 39 1007.8
20260506071559 69 355 2.6 8.7 0.00 0.00 0.00 40 1007.7
20260506070124 69 77 3.5 10.4 0.00 0.00 0.00 41 1007.7
20260506061548 67 355 2.6 7.8 0.00 0.00 0.00 44 1008.0
20260506044523 60 76 2.6 11.3 0.00 0.00 0.00 57 1007.8
20260506043019 58 59 0.0 4.3 0.00 0.00 0.00 59 1007.7
20260506041516 57 9 0.0 5.2 0.00 0.00 0.00 61 1007.6
20260506040016 57 24 0.0 4.3 0.00 0.00 0.00 60 1007.6
20260506034511 57 39 0.0 0.0 0.00 0.00 0.00 59 1007.6
20260506033014 57 43 0.0 2.6 0.00 0.00 0.00 58 1007.5
20260506031507 58 5 0.0 2.6 0.00 0.00 0.00 57 1007.4
20260506030006 58 355 0.0 3.5 0.00 0.00 0.00 56 1007.6
20260506024513 58 65 0.0 4.3 0.00 0.00 0.00 56 1007.6
20260506023003 59 92 2.6 7.8 0.00 0.00 0.00 55 1007.6
20260506021504 59 80 1.7 7.0 0.00 0.00 0.00 56 1007.6
20260506020001 59 70 0.0 5.2 0.00 0.00 0.00 55 1007.4
20260506014613 59 80 0.9 7.0 0.00 0.00 0.00 55 1007.3
20260506013059 59 69 0.9 8.7 0.00 0.00 0.00 55 1007.2
20260506011623 59 73 0.9 13.9 0.00 0.00 0.00 55 1007.1
20260506010056 59 76 1.7 10.4 0.00 0.00 0.00 55 1007.0
20260506004604 59 69 2.6 13.0 0.00 0.00 0.00 55 1007.2
20260506003055 59 25 3.5 10.4 0.00 0.00 0.00 55 1007.2
20260506001556 59 360 0.9 5.2 0.00 0.00 0.00 56 1007.1
20260506000117 59 12 1.7 7.8 0.00 0.00 0.00 55 1007.0
20260505234555 59 79 0.0 9.6 0.00 0.00 0.00 55 1007.1
20260505233057 59 5 0.0 7.0 0.00 0.00 0.00 56 1007.3
20260505231601 59 5 2.6 7.8 0.00 0.00 0.00 56 1007.2
20260505230104 59 73 0.0 7.0 0.00 0.00 0.00 56 1007.2
20260505224549 59 14 0.9 13.0 0.00 0.00 0.00 57 1007.1
20260505223048 59 64 1.7 7.8 0.00 0.00 0.00 57 1007.1
20260505221555 59 19 1.7 7.0 0.00 0.00 0.00 58 1007.2
20260505220044 59 360 0.9 8.7 0.00 0.00 0.00 57 1007.3
20260505214543 59 12 0.9 8.7 0.00 0.00 0.00 57 1007.3
20260505213042 59 34 5.2 12.2 0.00 0.00 0.00 58 1007.3
20260505211541 59 111 3.5 7.8 0.00 0.00 0.00 58 1007.6
20260505210040 59 63 2.6 11.3 0.00 0.00 0.00 57 1007.9
20260505204547 59 48 2.6 11.3 0.00 0.00 0.00 58 1007.7
20260505203052 59 117 3.5 11.3 0.00 0.00 0.00 57 1007.6
20260505201540 59 322 1.7 11.3 0.00 0.00 0.00 57 1007.8
20260505200038 59 305 0.9 4.3 0.00 0.00 0.00 56 1007.8
20260505194550 59 23 0.0 5.2 0.00 0.00 0.00 56 1007.7
20260505193038 60 5 0.9 10.4 0.00 0.00 0.00 55 1007.7
20260505191547 60 44 2.6 7.8 0.00 0.00 0.00 55 1007.7
20260505190039 60 5 2.6 11.3 0.00 0.00 0.00 54 1007.6
20260505184537 61 341 3.5 11.3 0.00 0.00 0.00 52 1007.5
20260505183034 61 338 1.7 10.4 0.00 0.00 0.00 52 1007.6
20260505181537 61 18 1.7 8.7 0.00 0.00 0.00 51 1007.6
20260505180043 61 355 1.7 8.7 0.00 0.00 0.00 51 1007.5
20260505174532 62 55 1.7 7.0 0.00 0.00 0.00 50 1007.7
20260505173029 62 67 2.6 9.6 0.00 0.00 0.00 48 1007.8
20260505171527 63 15 1.7 9.6 0.00 0.00 0.00 46 1008.0
20260505170026 64 360 3.5 8.7 0.00 0.00 0.00 44 1007.9
20260505164526 65 313 4.3 12.2 0.00 0.00 0.00 42 1007.9
20260505163025 65 70 2.6 10.4 0.00 0.00 0.00 43 1008.0
20260505161526 66 355 1.7 7.0 0.00 0.00 0.00 43 1008.2